Regional Weather Roundup
Issued by NWS

Home | Current Version | Previous Version | Graphics & Text | Print | Product List | Glossary Off
Versions: 1 2 3 4 5 6 7 8 9 10 11 12 13 14 15 16 17 18 19 20 21 22 23 24 25 26 27 28 29 30 31 32 33 34 35 36 37 38 39 40 41 42 43 44 45 46 47 48 49 50

715
ASUS43 KTOP 280559
RWRKS

WEATHER ROUNDUP FOR KANSAS
NATIONAL WEATHER SERVICE GOODLAND KS
100 AM CDT WED SEP 28 2016

NOTE:  "FAIR" INDICATES FEW OR NO CLOUDS BELOW 12,000 FEET WITH NO
SIGNIFICANT WEATHER AND/OR OBSTRUCTIONS TO VISIBILITY.

KSZ001>006-013>018-027>032-041>047-280700-
NORTHWEST KANSAS

CITY           SKY/WX    TMP DP  RH WIND       PRES   REMARKS
GOODLAND       CLEAR     56  39  53 SW8       30.08S
6HR MIN TEMP:  52; 6HR MAX TEMP:  82;

HAYS           CLEAR     54  43  66 W6        29.96S
HILL CITY      CLEAR     56  48  74 NW7       30.00R
6HR MIN TEMP:  54; 6HR MAX TEMP:  79;

RUSSELL        CLEAR     60  51  72 S10       29.93S
6HR MIN TEMP:  59; 6HR MAX TEMP:  79;

$$

KSZ061>065-074>080-084>089-280700-
SOUTHWEST KANSAS

CITY           SKY/WX    TMP DP  RH WIND       PRES   REMARKS
DODGE CITY     CLEAR     66  40  38 SW10      30.02S
6HR MIN TEMP:  59; 6HR MAX TEMP:  82;

ELKHART          N/A     65  35  33 SW7         N/A
GARDEN CITY    CLEAR     62  39  42 SW8       30.03S
6HR MIN TEMP:  60; 6HR MAX TEMP:  83;

GREAT BEND     CLEAR     57  46  67 CALM      29.96S
LIBERAL        CLEAR     57  37  47 W7        30.06S
$$

KSZ066>073-081>083-090>101-280700-
SOUTHEAST KANSAS

CITY           SKY/WX    TMP DP  RH WIND       PRES   REMARKS
CHANUTE        CLEAR     59  54  83 S7        29.92S
6HR MIN TEMP:  58; 6HR MAX TEMP:  73;

COFFEYVILLE    CLEAR     62  52  69 S5        29.94S
6HR MIN TEMP:  60; 6HR MAX TEMP:  76;

HUTCHINSON     CLEAR     56  54  93 CALM      29.94S
6HR MIN TEMP:  55; 6HR MAX TEMP:  81;

MEDICINE LODGE   N/A     61  54  77 CALM      29.96S
PARSONS        CLEAR     55  52  89 CALM      29.95R
6HR MIN TEMP:  54; 6HR MAX TEMP:  74;

WICHITA INTL   CLEAR     60  55  83 SW6       29.93F
6HR MIN TEMP:  60; 6HR MAX TEMP:  74;

WICHITA JABRA  CLEAR     66  55  67 SW10      29.93F
6HR MIN TEMP:  65; 6HR MAX TEMP:  74;

WICHITA MCCONL CLEAR     61  54  77 SW8       29.93F
WINFIELD       CLEAR     63  53  70 SW8       29.96S
6HR MIN TEMP:  61; 6HR MAX TEMP:  74;

$$

KSZ007>012-019>026-033>040-048>060-102>105-280700-
NORTHEAST KANSAS

CITY           SKY/WX    TMP DP  RH WIND       PRES   REMARKS
CONCORDIA      CLEAR     59  53  80 W9        29.92R HAZE
6HR MIN TEMP:  58; 6HR MAX TEMP:  75;

EMPORIA        CLEAR     65  56  72 SW13      29.90F
6HR MIN TEMP:  61; 6HR MAX TEMP:  74;

LAWRENCE       CLEAR     54  54 100 CALM      29.87F
6HR MIN TEMP:  54; 6HR MAX TEMP:  75;

MANHATTAN      CLEAR     57  54  89 CALM      29.89S
6HR MIN TEMP:  55; 6HR MAX TEMP:  76;

OLATHE IND     CLEAR     63  56  78 SW9       29.88F
6HR MIN TEMP:  60; 6HR MAX TEMP:  75;

OLATHE EXE     CLEAR     63  55  75 SW6       29.88S
6HR MIN TEMP:  60; 6HR MAX TEMP:  75;

SALINA         CLEAR     64  53  67 CALM      29.91R
6HR MIN TEMP:  59; 6HR MAX TEMP:  80;

TOPEKA BILLARD CLEAR     58  55  90 CALM      29.87S
6HR MIN TEMP:  58; 6HR MAX TEMP:  75;

TOPEKA FORBES  CLEAR     63  55  75 SW8       29.88S
6HR MIN TEMP:  61; 6HR MAX TEMP:  75;

$$




USA.gov is the U.S. government's official web portal to all federal, state and local government web resources and services.